Location: Unspecified
(30.2210°N, 0.0000°E)
Time: 08:53:57
(UTC+00:00)

NOAA-20 - Visible Passes

Search period start: 04 April 2026 00:00
Search period end: 14 April 2026 00:00
Orbit: 826 x 828 km, 98.8° (Epoch: 29 March)

Date Brightness Start Highest point End Pass type
(mag) Time Alt. Az. Time Alt. Az. Time Alt. Az.
8 Apr ? 02:31:22 10° NNW 02:31:26 10° NNW 02:31:26 10° NNW visible
9 Apr ? 02:12:11 10° N 02:12:31 12° N 02:12:31 12° N visible
10 Apr ? 01:53:13 10° N 01:53:36 12° N 01:53:36 12° N visible
11 Apr ? 01:34:26 10° NNE 01:34:41 11° NNE 01:34:41 11° NNE visible
13 Apr ? 02:37:50 10° NNW 02:38:21 12° NNW 02:38:21 12° NNW visible
